Year,Month,Day,Hour,Minute,Value (Times are PST for temperature in C)
2015,02,28,00,00,4.90
2015,02,28,00,01,4.90
2015,02,28,00,02,4.80
2015,02,28,00,03,4.80
2015,02,28,00,04,4.80
2015,02,28,00,05,4.70
2015,02,28,00,06,4.70
2015,02,28,00,07,4.70
2015,02,28,00,08,4.80
2015,02,28,00,09,4.80
2015,02,28,00,10,4.90
2015,02,28,00,11,5.10
2015,02,28,00,12,5.20
2015,02,28,00,13,5.30
2015,02,28,00,14,5.30
2015,02,28,00,15,5.50
2015,02,28,00,16,5.50
2015,02,28,00,17,5.60
2015,02,28,00,18,5.70
2015,02,28,00,19,5.70
2015,02,28,00,20,5.80
2015,02,28,00,21,5.90
2015,02,28,00,22,6.00
2015,02,28,00,23,6.00
2015,02,28,00,24,6.00
2015,02,28,00,25,5.90
2015,02,28,00,26,5.80
2015,02,28,00,27,5.70
2015,02,28,00,28,5.60
2015,02,28,00,29,5.50
2015,02,28,00,30,5.40
2015,02,28,00,31,5.30
2015,02,28,00,32,5.20
2015,02,28,00,33,5.20
2015,02,28,00,34,5.10
2015,02,28,00,35,5.10
2015,02,28,00,36,5.10
2015,02,28,00,37,5.10
2015,02,28,00,38,5.10
2015,02,28,00,39,5.00
2015,02,28,00,40,5.00
2015,02,28,00,41,5.10
2015,02,28,00,42,5.10
2015,02,28,00,43,5.10
2015,02,28,00,44,5.10
2015,02,28,00,45,5.10
2015,02,28,00,46,5.00
2015,02,28,00,47,5.00
2015,02,28,00,48,4.90
2015,02,28,00,49,4.80
2015,02,28,00,50,4.80
2015,02,28,00,51,4.90
2015,02,28,00,52,4.90
2015,02,28,00,53,4.80
2015,02,28,00,54,4.80
2015,02,28,00,55,4.80
2015,02,28,00,56,4.70
2015,02,28,00,57,4.70
2015,02,28,00,58,4.70
2015,02,28,00,59,4.70
2015,02,28,01,00,4.60
2015,02,28,01,01,4.60
2015,02,28,01,02,4.60
2015,02,28,01,03,4.60
2015,02,28,01,04,4.50
2015,02,28,01,05,4.50
2015,02,28,01,06,4.50
2015,02,28,01,07,4.50
2015,02,28,01,08,4.50
2015,02,28,01,09,4.60
2015,02,28,01,10,4.70
2015,02,28,01,11,4.70
2015,02,28,01,12,4.70
2015,02,28,01,13,4.70
2015,02,28,01,14,4.80
2015,02,28,01,15,4.80
2015,02,28,01,16,4.80
2015,02,28,01,17,4.80
2015,02,28,01,18,4.80
2015,02,28,01,19,4.80
2015,02,28,01,20,4.80
2015,02,28,01,21,4.80
2015,02,28,01,22,4.80
2015,02,28,01,23,4.80
2015,02,28,01,24,4.80
2015,02,28,01,25,4.80
2015,02,28,01,26,4.80
2015,02,28,01,27,4.80
2015,02,28,01,28,4.90
2015,02,28,01,29,4.90
2015,02,28,01,30,5.00
2015,02,28,01,31,5.20
2015,02,28,01,32,5.40
2015,02,28,01,33,5.50
2015,02,28,01,34,5.60
2015,02,28,01,35,5.60
2015,02,28,01,36,5.50
2015,02,28,01,37,5.40
2015,02,28,01,38,5.40
2015,02,28,01,39,5.30
2015,02,28,01,40,5.30
2015,02,28,01,41,5.30
2015,02,28,01,42,5.20
2015,02,28,01,43,5.30
2015,02,28,01,44,5.30
2015,02,28,01,45,5.40
2015,02,28,01,46,5.40
2015,02,28,01,47,5.40
2015,02,28,01,48,5.50
2015,02,28,01,49,5.60
2015,02,28,01,50,5.80
2015,02,28,01,51,5.90
2015,02,28,01,52,6.10
2015,02,28,01,53,6.20
2015,02,28,01,54,6.10
2015,02,28,01,55,6.00
2015,02,28,01,56,6.00
2015,02,28,01,57,6.00
2015,02,28,01,58,6.00
2015,02,28,01,59,6.00
2015,02,28,02,00,6.00
2015,02,28,02,01,5.90
2015,02,28,02,02,5.90
2015,02,28,02,03,5.90
2015,02,28,02,04,5.90
2015,02,28,02,05,5.90
2015,02,28,02,06,6.00
2015,02,28,02,07,6.00
2015,02,28,02,08,5.90
2015,02,28,02,09,5.80
2015,02,28,02,10,5.80
2015,02,28,02,11,5.70
2015,02,28,02,12,5.70
2015,02,28,02,13,5.80
2015,02,28,02,14,5.80
2015,02,28,02,15,5.90
2015,02,28,02,16,5.90
2015,02,28,02,17,6.00
2015,02,28,02,18,5.90
2015,02,28,02,19,5.90
2015,02,28,02,20,5.80
2015,02,28,02,21,5.70
2015,02,28,02,22,5.60
2015,02,28,02,23,5.60
2015,02,28,02,24,5.50
2015,02,28,02,25,5.50
2015,02,28,02,26,5.50
2015,02,28,02,27,5.40
2015,02,28,02,28,5.30
2015,02,28,02,29,5.10
2015,02,28,02,30,5.00
2015,02,28,02,31,4.90
2015,02,28,02,32,4.80
2015,02,28,02,33,4.70
2015,02,28,02,34,4.70
2015,02,28,02,35,4.70
2015,02,28,02,36,4.70
2015,02,28,02,37,4.80
2015,02,28,02,38,4.90
2015,02,28,02,39,5.00
2015,02,28,02,40,5.00
2015,02,28,02,41,5.00
2015,02,28,02,42,4.80
2015,02,28,02,43,4.50
2015,02,28,02,44,4.20
2015,02,28,02,45,3.90
2015,02,28,02,46,3.70
2015,02,28,02,47,3.60
2015,02,28,02,48,3.50
2015,02,28,02,49,3.40
2015,02,28,02,50,3.30
2015,02,28,02,51,3.20
2015,02,28,02,52,3.10
2015,02,28,02,53,3.00
2015,02,28,02,54,2.90
2015,02,28,02,55,2.90
2015,02,28,02,56,2.80
2015,02,28,02,57,2.80
2015,02,28,02,58,2.80
2015,02,28,02,59,2.70
2015,02,28,03,00,2.70
2015,02,28,03,01,2.60
2015,02,28,03,02,2.60
2015,02,28,03,03,2.60
2015,02,28,03,06,2.60
2015,02,28,03,07,2.70
2015,02,28,03,08,2.70
2015,02,28,03,09,2.80
2015,02,28,03,10,2.90
2015,02,28,03,11,2.90
2015,02,28,03,12,3.00
2015,02,28,03,13,3.00
2015,02,28,03,14,3.10
2015,02,28,03,15,3.10
2015,02,28,03,16,3.10
2015,02,28,03,17,3.10
2015,02,28,03,18,3.10
2015,02,28,03,19,3.10
2015,02,28,03,20,3.10
2015,02,28,03,21,3.10
2015,02,28,03,22,3.10
2015,02,28,03,23,3.10
2015,02,28,03,24,3.10
2015,02,28,03,25,3.10
2015,02,28,03,26,3.00
2015,02,28,03,27,3.00
2015,02,28,03,28,3.00
2015,02,28,03,29,3.00
2015,02,28,03,30,3.00
2015,02,28,03,31,3.00
2015,02,28,03,32,3.00
2015,02,28,03,33,2.90
2015,02,28,03,34,2.90
2015,02,28,03,35,2.90
2015,02,28,03,36,2.90
2015,02,28,03,37,3.00
2015,02,28,03,38,3.00
2015,02,28,03,39,3.00
2015,02,28,03,40,3.00
2015,02,28,03,41,2.90
2015,02,28,03,42,2.90
2015,02,28,03,43,2.90
2015,02,28,03,44,2.90
2015,02,28,03,45,2.90
2015,02,28,03,46,2.80
2015,02,28,03,47,2.80
2015,02,28,03,48,2.70
2015,02,28,03,49,2.70
2015,02,28,03,50,2.70
2015,02,28,03,51,2.60
2015,02,28,03,52,2.60
2015,02,28,03,53,2.60
2015,02,28,03,54,2.70
2015,02,28,03,55,2.70
2015,02,28,03,56,2.70
2015,02,28,03,57,2.70
2015,02,28,03,58,2.70
2015,02,28,03,59,2.70
2015,02,28,04,00,2.70
2015,02,28,04,01,2.70
2015,02,28,04,02,2.70
2015,02,28,04,03,2.80
2015,02,28,04,04,2.80
2015,02,28,04,05,2.80
2015,02,28,04,06,2.80
2015,02,28,04,07,2.70
2015,02,28,04,08,2.70
2015,02,28,04,09,2.60
2015,02,28,04,10,2.50
2015,02,28,04,11,2.40
2015,02,28,04,12,2.30
2015,02,28,04,13,2.30
2015,02,28,04,14,2.20
2015,02,28,04,15,2.20
2015,02,28,04,16,2.20
2015,02,28,04,17,2.20
2015,02,28,04,18,2.20
2015,02,28,04,19,2.10
2015,02,28,04,20,2.10
2015,02,28,04,21,2.00
2015,02,28,04,22,2.00
2015,02,28,04,23,1.90
2015,02,28,04,24,1.80
2015,02,28,04,25,1.70
2015,02,28,04,26,1.70
2015,02,28,04,27,1.70
2015,02,28,04,28,1.60
2015,02,28,04,29,1.60
2015,02,28,04,30,1.60
2015,02,28,04,31,1.60
2015,02,28,04,32,1.60
2015,02,28,04,33,1.60
2015,02,28,04,34,1.50
2015,02,28,04,35,1.50
2015,02,28,04,36,1.40
2015,02,28,04,37,1.30
2015,02,28,04,38,1.30
2015,02,28,04,39,1.30
2015,02,28,04,40,1.20
2015,02,28,04,41,1.20
2015,02,28,04,42,1.20
2015,02,28,04,43,1.10
2015,02,28,04,44,1.10
2015,02,28,04,45,1.10
2015,02,28,04,46,1.10
2015,02,28,04,47,1.00
2015,02,28,04,48,1.00
2015,02,28,04,49,1.00
2015,02,28,04,50,1.00
2015,02,28,04,51,1.00
2015,02,28,04,52,1.00
2015,02,28,04,53,1.00
2015,02,28,04,54,0.90
2015,02,28,04,55,0.90
2015,02,28,04,56,0.90
2015,02,28,04,57,0.90
2015,02,28,04,58,0.80
2015,02,28,04,59,0.80
2015,02,28,05,00,0.80
2015,02,28,05,01,0.70
2015,02,28,05,02,0.70
2015,02,28,05,03,0.70
2015,02,28,05,04,0.70
2015,02,28,05,05,0.60
2015,02,28,05,06,0.60
2015,02,28,05,07,0.60
2015,02,28,05,08,0.60
2015,02,28,05,09,0.60
2015,02,28,05,10,0.60
2015,02,28,05,11,0.60
2015,02,28,05,12,0.60
2015,02,28,05,13,0.60
2015,02,28,05,14,0.60
2015,02,28,05,15,0.60
2015,02,28,05,16,0.60
2015,02,28,05,17,0.60
2015,02,28,05,18,0.70
2015,02,28,05,19,0.70
2015,02,28,05,20,0.70
2015,02,28,05,21,0.70
2015,02,28,05,22,0.70
2015,02,28,05,23,0.70
2015,02,28,05,24,0.70
2015,02,28,05,25,0.70
2015,02,28,05,26,0.70
2015,02,28,05,27,0.70
2015,02,28,05,28,0.60
2015,02,28,05,29,0.60
2015,02,28,05,30,0.50
2015,02,28,05,31,0.40
2015,02,28,05,32,0.40
2015,02,28,05,33,0.30
2015,02,28,05,34,0.30
2015,02,28,05,35,0.30
2015,02,28,05,36,0.20
2015,02,28,05,37,0.20
2015,02,28,05,38,0.10
2015,02,28,05,39,0.10
2015,02,28,05,40,0.10
2015,02,28,05,41,0.10
2015,02,28,05,42,0.10
2015,02,28,05,43,0.00
2015,02,28,05,44,0.00
2015,02,28,05,45,0.10
2015,02,28,05,46,0.10
2015,02,28,05,47,0.10
2015,02,28,05,48,0.10
2015,02,28,05,49,0.10
2015,02,28,05,50,0.20
2015,02,28,05,51,0.20
2015,02,28,05,52,0.20
2015,02,28,05,53,0.20
2015,02,28,05,54,0.20
2015,02,28,05,55,0.30
2015,02,28,05,56,0.30
2015,02,28,05,57,0.30
2015,02,28,05,58,0.30
2015,02,28,05,59,0.40
2015,02,28,06,00,0.40
2015,02,28,06,01,0.40
2015,02,28,06,02,0.40
2015,02,28,06,03,0.40
2015,02,28,06,04,0.40
2015,02,28,06,05,0.40
2015,02,28,06,06,0.40
2015,02,28,06,07,0.40
2015,02,28,06,08,0.40
2015,02,28,06,09,0.50
2015,02,28,06,10,0.50
2015,02,28,06,11,0.50
2015,02,28,06,12,0.50
2015,02,28,06,13,0.60
2015,02,28,06,14,0.50
2015,02,28,06,15,0.50
2015,02,28,06,16,0.50
2015,02,28,06,17,0.50
2015,02,28,06,18,0.60
2015,02,28,06,19,0.50
2015,02,28,06,20,0.50
2015,02,28,06,21,0.50
2015,02,28,06,22,0.50
2015,02,28,06,23,0.50
2015,02,28,06,24,0.40
2015,02,28,06,25,0.40
2015,02,28,06,26,0.40
2015,02,28,06,27,0.30
2015,02,28,06,28,0.30
2015,02,28,06,29,0.30
2015,02,28,06,30,0.30
2015,02,28,06,31,0.20
2015,02,28,06,32,0.20
2015,02,28,06,33,0.20
2015,02,28,06,34,0.20
2015,02,28,06,35,0.10
2015,02,28,06,36,0.10
2015,02,28,06,37,0.10
2015,02,28,06,38,0.10
2015,02,28,06,39,0.10
2015,02,28,06,40,0.10
2015,02,28,06,41,0.10
2015,02,28,06,42,0.00
2015,02,28,06,43,0.00
2015,02,28,06,44,0.00
2015,02,28,06,45,0.00
2015,02,28,06,46,0.00
2015,02,28,06,47,-0.10
2015,02,28,06,48,0.00
2015,02,28,06,49,0.00
2015,02,28,06,50,0.10
2015,02,28,06,51,0.10
2015,02,28,06,52,0.20
2015,02,28,06,53,0.20
2015,02,28,06,54,0.20
2015,02,28,06,55,0.20
2015,02,28,06,56,0.20
2015,02,28,06,57,0.20
2015,02,28,06,58,0.20
2015,02,28,06,59,0.20
2015,02,28,07,00,0.20
2015,02,28,07,01,0.20
2015,02,28,07,02,0.20
2015,02,28,07,03,0.20
2015,02,28,07,04,0.20
2015,02,28,07,05,0.20
2015,02,28,07,06,0.10
2015,02,28,07,07,0.10
2015,02,28,07,08,0.10
2015,02,28,07,09,0.10
2015,02,28,07,10,0.10
2015,02,28,07,11,0.10
2015,02,28,07,12,0.00
2015,02,28,07,13,0.00
2015,02,28,07,14,0.00
2015,02,28,07,15,0.00
2015,02,28,07,16,0.00
2015,02,28,07,17,0.00
2015,02,28,07,18,0.00
2015,02,28,07,19,-0.10
2015,02,28,07,20,-0.10
2015,02,28,07,21,-0.10
2015,02,28,07,22,-0.10
2015,02,28,07,23,-0.10
2015,02,28,07,24,-0.10
2015,02,28,07,25,-0.10
2015,02,28,07,26,-0.10
2015,02,28,07,27,-0.10
2015,02,28,07,28,-0.10
2015,02,28,07,29,-0.10
2015,02,28,07,30,-0.10
2015,02,28,07,31,-0.10
2015,02,28,07,32,-0.10
2015,02,28,07,33,-0.10
2015,02,28,07,34,-0.20
2015,02,28,07,35,-0.20
2015,02,28,07,36,-0.20
2015,02,28,07,37,-0.20
2015,02,28,07,38,-0.20
2015,02,28,07,39,-0.30
2015,02,28,07,40,-0.30
2015,02,28,07,41,-0.30
2015,02,28,07,42,-0.30
2015,02,28,07,43,-0.30
2015,02,28,07,44,-0.30
2015,02,28,07,45,-0.30
2015,02,28,07,46,-0.40
2015,02,28,07,47,-0.40
2015,02,28,07,48,-0.30
2015,02,28,07,49,-0.40
2015,02,28,07,50,-0.40
2015,02,28,07,51,-0.30
2015,02,28,07,52,-0.40
2015,02,28,07,53,-0.40
2015,02,28,07,54,-0.40
2015,02,28,07,55,-0.40
2015,02,28,07,56,-0.40
2015,02,28,07,57,-0.40
2015,02,28,07,58,-0.50
2015,02,28,07,59,-0.50
2015,02,28,08,00,-0.50
2015,02,28,08,01,-0.50
2015,02,28,08,02,-0.60
2015,02,28,08,03,-0.60
2015,02,28,08,04,-0.60
2015,02,28,08,05,-0.60
2015,02,28,08,06,-0.60
2015,02,28,08,07,-0.60
2015,02,28,08,08,-0.60
2015,02,28,08,09,-0.60
2015,02,28,08,10,-0.60
2015,02,28,08,11,-0.60
2015,02,28,08,12,-0.60
2015,02,28,08,13,-0.60
2015,02,28,08,14,-0.60
2015,02,28,08,15,-0.60
2015,02,28,08,16,-0.50
2015,02,28,08,17,-0.50
2015,02,28,08,18,-0.50
2015,02,28,08,19,-0.40
2015,02,28,08,20,-0.40
2015,02,28,08,21,-0.40
2015,02,28,08,22,-0.30
2015,02,28,08,23,-0.30
2015,02,28,08,24,-0.20
2015,02,28,08,25,-0.10
2015,02,28,08,26,0.00
2015,02,28,08,27,0.10
2015,02,28,08,28,0.20
2015,02,28,08,29,0.30
2015,02,28,08,30,0.40
2015,02,28,08,31,0.50
2015,02,28,08,32,0.60
2015,02,28,08,33,0.60
2015,02,28,08,34,0.70
2015,02,28,08,35,0.70
2015,02,28,08,36,0.80
2015,02,28,08,37,0.80
2015,02,28,08,38,0.90
2015,02,28,08,39,1.00
2015,02,28,08,40,1.00
2015,02,28,08,41,1.20
2015,02,28,08,42,1.20
2015,02,28,08,43,1.30
2015,02,28,08,44,1.40
2015,02,28,08,45,1.40
2015,02,28,08,46,1.50
2015,02,28,08,47,1.50
2015,02,28,08,48,1.60
2015,02,28,08,49,1.60
2015,02,28,08,50,1.70
2015,02,28,08,51,1.80
2015,02,28,08,52,1.80
2015,02,28,08,53,1.90
2015,02,28,08,54,1.90
2015,02,28,08,55,2.00
2015,02,28,08,56,2.00
2015,02,28,08,57,2.10
2015,02,28,08,58,2.10
2015,02,28,08,59,2.20
2015,02,28,09,00,2.20
2015,02,28,09,01,2.30
2015,02,28,09,02,2.30
2015,02,28,09,03,2.40
2015,02,28,09,04,2.40
2015,02,28,09,05,2.50
2015,02,28,09,06,2.60
2015,02,28,09,07,2.70
2015,02,28,09,08,2.70
2015,02,28,09,09,2.80
2015,02,28,09,10,2.80
2015,02,28,09,11,2.90
2015,02,28,09,12,3.00
2015,02,28,09,13,3.00
2015,02,28,09,14,3.00
2015,02,28,09,15,3.10
2015,02,28,09,16,3.10
2015,02,28,09,17,3.20
2015,02,28,09,18,3.20
2015,02,28,09,19,3.30
2015,02,28,09,20,3.30
2015,02,28,09,21,3.40
2015,02,28,09,22,3.50
2015,02,28,09,23,3.50
2015,02,28,09,24,3.50
2015,02,28,09,25,3.60
2015,02,28,09,26,3.60
2015,02,28,09,27,3.70
2015,02,28,09,28,3.70
2015,02,28,09,29,3.70
2015,02,28,09,30,3.80
2015,02,28,09,31,3.80
2015,02,28,09,32,3.90
2015,02,28,09,33,4.00
2015,02,28,09,34,4.10
2015,02,28,09,35,4.20
2015,02,28,09,36,4.20
2015,02,28,09,37,4.30
2015,02,28,09,38,4.30
2015,02,28,09,39,4.30
2015,02,28,09,40,4.30
2015,02,28,09,41,4.30
2015,02,28,09,42,4.20
2015,02,28,09,43,4.20
2015,02,28,09,44,4.20
2015,02,28,09,45,4.10
2015,02,28,09,46,4.20
2015,02,28,09,47,4.20
2015,02,28,09,48,4.20
2015,02,28,09,49,4.30
2015,02,28,09,50,4.30
2015,02,28,09,51,4.30
2015,02,28,09,52,4.40
2015,02,28,09,53,4.40
2015,02,28,09,54,4.40
2015,02,28,09,55,4.40
2015,02,28,09,56,4.50
2015,02,28,09,57,4.60
2015,02,28,09,58,4.60
2015,02,28,09,59,4.70
2015,02,28,10,00,4.70
2015,02,28,10,01,4.80
2015,02,28,10,02,4.90
2015,02,28,10,03,4.90
2015,02,28,10,04,5.00
2015,02,28,10,05,5.10
2015,02,28,10,06,5.20
2015,02,28,10,07,5.20
2015,02,28,10,08,5.30
2015,02,28,10,09,5.30
2015,02,28,10,10,5.30
2015,02,28,10,11,5.30
2015,02,28,10,12,5.30
2015,02,28,10,13,5.30
2015,02,28,10,14,5.40
2015,02,28,10,15,5.40
2015,02,28,10,16,5.40
2015,02,28,10,17,5.40
2015,02,28,10,18,5.50
2015,02,28,10,19,5.60
2015,02,28,10,20,5.60
2015,02,28,10,21,5.60
2015,02,28,10,22,5.70
2015,02,28,10,23,5.80
2015,02,28,10,24,5.80
2015,02,28,10,25,5.90
2015,02,28,10,26,5.90
2015,02,28,10,27,5.90
2015,02,28,10,28,5.90
2015,02,28,10,29,6.00
2015,02,28,10,30,6.00
2015,02,28,10,31,6.00
2015,02,28,10,32,6.00
2015,02,28,10,33,6.10
2015,02,28,10,34,6.10
2015,02,28,10,35,6.10
2015,02,28,10,36,6.10
2015,02,28,10,37,6.10
2015,02,28,10,38,6.10
2015,02,28,10,39,6.10
2015,02,28,10,40,6.10
2015,02,28,10,41,6.10
2015,02,28,10,42,6.10
2015,02,28,10,43,6.10
2015,02,28,10,44,6.20
2015,02,28,10,45,6.20
2015,02,28,10,46,6.20
2015,02,28,10,47,6.30
2015,02,28,10,48,6.30
2015,02,28,10,49,6.30
2015,02,28,10,50,6.40
2015,02,28,10,51,6.40
2015,02,28,10,52,6.40
2015,02,28,10,53,6.40
2015,02,28,10,54,6.40
2015,02,28,10,55,6.40
2015,02,28,10,56,6.50
2015,02,28,10,57,6.50
2015,02,28,10,58,6.60
2015,02,28,10,59,6.60
2015,02,28,11,00,6.70
2015,02,28,11,01,6.70
2015,02,28,11,02,6.70
2015,02,28,11,03,6.70
2015,02,28,11,04,6.80
2015,02,28,11,05,6.80
2015,02,28,11,06,6.80
2015,02,28,11,07,6.80
2015,02,28,11,08,6.80
2015,02,28,11,09,6.90
2015,02,28,11,10,6.90
2015,02,28,11,11,7.00
2015,02,28,11,12,7.00
2015,02,28,11,13,7.10
2015,02,28,11,14,7.10
2015,02,28,11,15,7.10
2015,02,28,11,16,7.10
2015,02,28,11,17,7.20
2015,02,28,11,18,7.20
2015,02,28,11,19,7.20
2015,02,28,11,20,7.30
2015,02,28,11,21,7.30
2015,02,28,11,22,7.30
2015,02,28,11,23,7.40
2015,02,28,11,24,7.40
2015,02,28,11,25,7.50
2015,02,28,11,26,7.50
2015,02,28,11,27,7.60
2015,02,28,11,28,7.60
2015,02,28,11,29,7.70
2015,02,28,11,30,7.80
2015,02,28,11,31,7.80
2015,02,28,11,32,7.90
2015,02,28,11,33,8.00
2015,02,28,11,34,8.10
2015,02,28,11,35,8.20
2015,02,28,11,36,8.30
2015,02,28,11,37,8.30
2015,02,28,11,38,8.40
2015,02,28,11,39,8.40
2015,02,28,11,40,8.40
2015,02,28,11,41,8.40
2015,02,28,11,42,8.40
2015,02,28,11,43,8.40
2015,02,28,11,44,8.40
2015,02,28,11,45,8.50
2015,02,28,11,46,8.50
2015,02,28,11,47,8.60
2015,02,28,11,48,8.70
2015,02,28,11,49,8.80
2015,02,28,11,50,8.80
2015,02,28,11,51,8.80
2015,02,28,11,52,8.90
2015,02,28,11,53,9.00
2015,02,28,11,54,9.10
2015,02,28,11,55,9.10
2015,02,28,11,56,9.20
2015,02,28,11,57,9.30
2015,02,28,11,58,9.30
2015,02,28,11,59,9.40
2015,02,28,12,00,9.40
2015,02,28,12,01,9.40
2015,02,28,12,02,9.40
2015,02,28,12,03,9.50
2015,02,28,12,04,9.50
2015,02,28,12,05,9.50
2015,02,28,12,06,9.50
2015,02,28,12,07,9.50
2015,02,28,12,08,9.50
2015,02,28,12,09,9.50
2015,02,28,12,10,9.50
2015,02,28,12,11,9.60
2015,02,28,12,12,9.60
2015,02,28,12,13,9.70
2015,02,28,12,14,9.70
2015,02,28,12,15,9.70
2015,02,28,12,16,9.80
2015,02,28,12,17,9.90
2015,02,28,12,18,10.00
2015,02,28,12,19,10.10
2015,02,28,12,20,10.20
2015,02,28,12,21,10.30
2015,02,28,12,22,10.40
2015,02,28,12,23,10.40
2015,02,28,12,24,10.50
2015,02,28,12,25,10.50
2015,02,28,12,26,10.50
2015,02,28,12,27,10.50
2015,02,28,12,28,10.60
2015,02,28,12,29,10.60
2015,02,28,12,30,10.70
2015,02,28,12,31,10.70
2015,02,28,12,32,10.80
2015,02,28,12,33,10.80
2015,02,28,12,34,10.80
2015,02,28,12,35,10.90
2015,02,28,12,36,11.00
2015,02,28,12,37,11.10
2015,02,28,12,38,11.20
2015,02,28,12,39,11.20
2015,02,28,12,40,11.30
2015,02,28,12,41,11.30
2015,02,28,12,42,11.30
2015,02,28,12,43,11.30
2015,02,28,12,44,11.40
2015,02,28,12,45,11.40
2015,02,28,12,46,11.50
2015,02,28,12,47,11.40
2015,02,28,12,48,11.40
2015,02,28,12,49,11.40
2015,02,28,12,50,11.50
2015,02,28,12,51,11.50
2015,02,28,12,52,11.50
2015,02,28,12,53,11.50
2015,02,28,12,54,11.60
2015,02,28,12,55,11.60
2015,02,28,12,56,11.70
2015,02,28,12,57,11.80
2015,02,28,12,58,11.80
2015,02,28,12,59,11.80
2015,02,28,13,00,11.80
2015,02,28,13,01,11.80
2015,02,28,13,02,11.90
2015,02,28,13,03,11.90
2015,02,28,13,04,11.90
2015,02,28,13,05,12.00
2015,02,28,13,06,12.00
2015,02,28,13,07,12.10
2015,02,28,13,08,12.20
2015,02,28,13,09,12.20
2015,02,28,13,10,12.20
2015,02,28,13,11,12.20
2015,02,28,13,12,12.20
2015,02,28,13,13,12.20
2015,02,28,13,14,12.20
2015,02,28,13,15,12.20
2015,02,28,13,16,12.20
2015,02,28,13,17,12.20
2015,02,28,13,18,12.30
2015,02,28,13,19,12.30
2015,02,28,13,20,12.40
2015,02,28,13,21,12.40
2015,02,28,13,22,12.40
2015,02,28,13,23,12.40
2015,02,28,13,24,12.30
2015,02,28,13,25,12.30
2015,02,28,13,26,12.40
2015,02,28,13,27,12.40
2015,02,28,13,28,12.50
2015,02,28,13,29,12.60
2015,02,28,13,30,12.70
2015,02,28,13,31,12.70
2015,02,28,13,32,12.80
2015,02,28,13,33,12.80
2015,02,28,13,34,12.80
2015,02,28,13,35,12.80
2015,02,28,13,36,12.80
2015,02,28,13,37,12.90
2015,02,28,13,38,12.90
2015,02,28,13,39,12.90
2015,02,28,13,40,12.90
2015,02,28,13,41,12.90
2015,02,28,13,42,12.90
2015,02,28,13,43,13.00
2015,02,28,13,44,13.00
2015,02,28,13,45,13.10
2015,02,28,13,46,13.10
2015,02,28,13,47,13.20
2015,02,28,13,48,13.30
2015,02,28,13,49,13.30
2015,02,28,13,50,13.30
2015,02,28,13,51,13.30
2015,02,28,13,52,13.40
2015,02,28,13,53,13.40
2015,02,28,13,54,13.40
2015,02,28,13,55,13.30
2015,02,28,13,56,13.30
2015,02,28,13,57,13.30
2015,02,28,13,58,13.30
2015,02,28,13,59,13.20
2015,02,28,14,00,13.20
2015,02,28,14,01,13.20
2015,02,28,14,02,13.10
2015,02,28,14,03,13.10
2015,02,28,14,04,13.10
2015,02,28,14,05,13.00
2015,02,28,14,06,13.10
2015,02,28,14,07,13.20
2015,02,28,14,08,13.20
2015,02,28,14,09,13.20
2015,02,28,14,10,13.30
2015,02,28,14,11,13.30
2015,02,28,14,12,13.30
2015,02,28,14,13,13.30
2015,02,28,14,14,13.30
2015,02,28,14,15,13.30
2015,02,28,14,16,13.30
2015,02,28,14,17,13.30
2015,02,28,14,18,13.30
2015,02,28,14,19,13.30
2015,02,28,14,20,13.30
2015,02,28,14,21,13.30
2015,02,28,14,22,13.30
2015,02,28,14,23,13.30
2015,02,28,14,24,13.20
2015,02,28,14,25,13.20
2015,02,28,14,26,13.20
2015,02,28,14,27,13.20
2015,02,28,14,28,13.20
2015,02,28,14,29,13.20
2015,02,28,14,30,13.30
2015,02,28,14,31,13.30
2015,02,28,14,32,13.30
2015,02,28,14,33,13.30
2015,02,28,14,34,13.20
2015,02,28,14,35,13.20
2015,02,28,14,36,13.20
2015,02,28,14,37,13.20
2015,02,28,14,38,13.20
2015,02,28,14,39,13.20
2015,02,28,14,40,13.20
2015,02,28,14,41,13.20
2015,02,28,14,42,13.20
2015,02,28,14,43,13.20
2015,02,28,14,44,13.20
2015,02,28,14,45,13.20
2015,02,28,14,46,13.20
2015,02,28,14,47,13.20
2015,02,28,14,48,13.30
2015,02,28,14,49,13.30
2015,02,28,14,50,13.40
2015,02,28,14,51,13.40
2015,02,28,14,52,13.30
2015,02,28,14,53,13.30
2015,02,28,14,54,13.20
2015,02,28,14,55,13.20
2015,02,28,14,56,13.30
2015,02,28,14,57,13.30
2015,02,28,14,58,13.40
2015,02,28,14,59,13.50
2015,02,28,15,00,13.60
2015,02,28,15,01,13.60
2015,02,28,15,02,13.50
2015,02,28,15,03,13.50
2015,02,28,15,04,13.50
2015,02,28,15,05,13.50
2015,02,28,15,06,13.50
2015,02,28,15,07,13.60
2015,02,28,15,08,13.60
2015,02,28,15,09,13.70
2015,02,28,15,10,13.70
2015,02,28,15,11,13.70
2015,02,28,15,12,13.70
2015,02,28,15,13,13.60
2015,02,28,15,14,13.60
2015,02,28,15,15,13.70
2015,02,28,15,16,13.70
2015,02,28,15,17,13.60
2015,02,28,15,18,13.60
2015,02,28,15,19,13.60
2015,02,28,15,20,13.70
2015,02,28,15,21,13.70
2015,02,28,15,22,13.70
2015,02,28,15,23,13.70
2015,02,28,15,24,13.70
2015,02,28,15,25,13.70
2015,02,28,15,26,13.80
2015,02,28,15,27,13.80
2015,02,28,15,28,13.80
2015,02,28,15,29,13.90
2015,02,28,15,30,13.90
2015,02,28,15,31,14.00
2015,02,28,15,32,14.10
2015,02,28,15,33,14.10
2015,02,28,15,34,14.10
2015,02,28,15,35,14.20
2015,02,28,15,36,14.20
2015,02,28,15,37,14.20
2015,02,28,15,38,14.20
2015,02,28,15,39,14.20
2015,02,28,15,40,14.20
2015,02,28,15,41,14.10
2015,02,28,15,42,14.10
2015,02,28,15,43,14.10
2015,02,28,15,44,14.10
2015,02,28,15,45,14.10
2015,02,28,15,46,14.00
2015,02,28,15,47,14.00
2015,02,28,15,48,14.00
2015,02,28,15,49,13.90
2015,02,28,15,50,13.90
2015,02,28,15,51,14.00
2015,02,28,15,52,14.00
2015,02,28,15,53,14.00
2015,02,28,15,54,14.00
2015,02,28,15,55,13.90
2015,02,28,15,56,13.80
2015,02,28,15,57,13.80
2015,02,28,15,58,13.70
2015,02,28,15,59,13.70
2015,02,28,16,00,13.70
2015,02,28,16,01,13.70
2015,02,28,16,02,13.70
2015,02,28,16,03,13.70
2015,02,28,16,04,13.70
2015,02,28,16,05,13.70
2015,02,28,16,06,13.70
2015,02,28,16,07,13.70
2015,02,28,16,08,13.70
2015,02,28,16,09,13.70
2015,02,28,16,10,13.70
2015,02,28,16,11,13.80
2015,02,28,16,12,13.80
2015,02,28,16,13,13.80
2015,02,28,16,14,13.80
2015,02,28,16,15,13.70
2015,02,28,16,16,13.70
2015,02,28,16,17,13.70
2015,02,28,16,18,13.60
2015,02,28,16,19,13.60
2015,02,28,16,20,13.50
2015,02,28,16,21,13.50
2015,02,28,16,22,13.50
2015,02,28,16,23,13.40
2015,02,28,16,24,13.40
2015,02,28,16,25,13.30
2015,02,28,16,26,13.30
2015,02,28,16,27,13.20
2015,02,28,16,28,13.20
2015,02,28,16,29,13.10
2015,02,28,16,30,13.10
2015,02,28,16,31,13.10
2015,02,28,16,32,13.10
2015,02,28,16,33,13.00
2015,02,28,16,34,13.00
2015,02,28,16,35,13.00
2015,02,28,16,36,13.00
2015,02,28,16,37,13.00
2015,02,28,16,38,12.90
2015,02,28,16,39,12.90
2015,02,28,16,40,12.80
2015,02,28,16,41,12.80
2015,02,28,16,42,12.70
2015,02,28,16,43,12.70
2015,02,28,16,44,12.60
2015,02,28,16,45,12.60
2015,02,28,16,46,12.50
2015,02,28,16,47,12.50
2015,02,28,16,48,12.40
2015,02,28,16,49,12.30
2015,02,28,16,50,12.30
2015,02,28,16,51,12.20
2015,02,28,16,52,12.20
2015,02,28,16,53,12.20
2015,02,28,16,54,12.20
2015,02,28,16,55,12.20
2015,02,28,16,56,12.20
2015,02,28,16,57,12.20
2015,02,28,16,58,12.20
2015,02,28,16,59,12.20
2015,02,28,17,00,12.20
2015,02,28,17,01,12.20
2015,02,28,17,02,12.20
2015,02,28,17,03,12.20
2015,02,28,17,04,12.10
2015,02,28,17,05,12.10
2015,02,28,17,06,12.10
2015,02,28,17,07,12.00
2015,02,28,17,08,12.00
2015,02,28,17,09,11.90
2015,02,28,17,10,11.80
2015,02,28,17,11,11.80
2015,02,28,17,12,11.70
2015,02,28,17,13,11.70
2015,02,28,17,14,11.70
2015,02,28,17,15,11.60
2015,02,28,17,16,11.50
2015,02,28,17,17,11.40
2015,02,28,17,18,11.20
2015,02,28,17,19,11.20
2015,02,28,17,20,11.10
2015,02,28,17,21,11.00
2015,02,28,17,22,11.00
2015,02,28,17,23,11.00
2015,02,28,17,24,10.80
2015,02,28,17,25,10.80
2015,02,28,17,26,10.80
2015,02,28,17,27,10.80
2015,02,28,17,28,10.70
2015,02,28,17,29,10.70
2015,02,28,17,30,10.60
2015,02,28,17,31,10.60
2015,02,28,17,32,10.50
2015,02,28,17,33,10.40
2015,02,28,17,34,10.40
2015,02,28,17,35,10.30
2015,02,28,17,36,10.30
2015,02,28,17,37,10.20
2015,02,28,17,38,10.20
2015,02,28,17,39,10.10
2015,02,28,17,40,10.00
2015,02,28,17,41,10.00
2015,02,28,17,42,9.90
2015,02,28,17,43,9.90
2015,02,28,17,44,9.80
2015,02,28,17,45,9.70
2015,02,28,17,46,9.70
2015,02,28,17,47,9.60
2015,02,28,17,48,9.60
2015,02,28,17,49,9.50
2015,02,28,17,50,9.40